This demonstration page uses our WeatherBlox Daily Observations layout. Learn more.

Left ArrowRight Arrow

Hourly Observations for December 1, 2022

Temp ( °F °C ) Dew Point ( °F °C ) Humidity (%) Winds ( mph kmh ) Pressure ( in mb ) Visibility ( mi km ) Precip ( " mm )
12:15 am 00:15 Clear 25 -4 16 -9 68 68 W 15 24 30.40 1029 10 16 0.00 0.00
12:35 am 00:35 Clear 25 -4 16 -9 68 68 W 15 24 30.40 1029 10 16 0.00 0.00
12:55 am 00:55 Clear 25 -4 14 -10 63 63 W 17 28 30.41 1030 10 16 0.00 0.00
1:15 am 01:15 Clear 25 -4 16 -9 68 68 W 12 19 30.42 1030 10 16 0.00 0.00
1:35 am 01:35 Clear 25 -4 14 -10 63 63 W 17 28 30.42 1030 10 16 0.00 0.00
1:55 am 01:55 Clear 23 -5 14 -10 68 68 W 10 17 30.43 1031 10 16 0.00 0.00
2:15 am 02:15 Clear 23 -5 14 -10 68 68 W 12 19 30.45 1031 10 16 0.00 0.00
2:35 am 02:35 Clear 23 -5 14 -10 68 68 W 12 19 30.45 1031 10 16 0.00 0.00
2:55 am 02:55 Clear 23 -5 14 -10 68 68 W 12 19 30.46 1032 10 16 0.00 0.00
3:15 am 03:15 Clear 21 -6 14 -10 73 73 W 9 15 30.48 1032 10 16 0.00 0.00
3:35 am 03:35 Clear 21 -6 14 -10 73 73 W 12 19 30.48 1032 10 16 0.00 0.00
3:55 am 03:55 Clear 19 -7 14 -10 79 79 W 7 11 30.49 1033 10 16 0.00 0.00
4:15 am 04:15 Clear 21 -6 14 -10 73 73 W 9 15 30.49 1032 10 16 0.00 0.00
4:35 am 04:35 Clear 19 -7 14 -10 79 79 W 5 7 30.49 1033 10 16 0.00 0.00
4:55 am 04:55 Clear 19 -7 14 -10 79 79 WNW 7 11 30.50 1033 10 16 0.00 0.00
5:15 am 05:15 Clear 19 -7 14 -10 79 79 W 7 11 30.51 1033 10 16 0.00 0.00
5:35 am 05:35 Clear 18 -8 12 -11 79 79 W 7 11 30.52 1034 10 16 0.00 0.00
5:55 am 05:55 Clear 18 -8 12 -11 79 79 W 5 7 30.55 1034 10 16 0.00 0.00
6:15 am 06:15 Clear 16 -9 12 -11 85 85 W 6 9 30.56 1035 10 16 0.00 0.00
6:35 am 06:35 Clear 18 -8 12 -11 79 79 W 8 13 30.57 1035 10 16 0.00 0.00
6:55 am 06:55 Clear 18 -8 12 -11 79 79 W 7 11 30.58 1035 10 16 0.00 0.00
7:15 am 07:15 Clear 18 -8 12 -11 79 79 W 5 7 30.58 1035 10 16 0.00 0.00
7:35 am 07:35 Clear 16 -9 12 -11 85 85 SW 3 6 30.58 1036 10 16 0.00 0.00
7:55 am 07:55 Sunny 16 -9 12 -11 85 85 Calm 30.59 1036 10 16 0.00 0.00
8:15 am 08:15 Sunny 18 -8 12 -11 79 79 W 3 6 30.59 1036 10 16 0.00 0.00
8:35 am 08:35 Sunny 18 -8 14 -10 85 85 WSW 3 6 30.60 1036 10 16 0.00 0.00
8:55 am 08:55 Sunny 21 -6 16 -9 79 79 SW 3 6 30.59 1036 10 16 0.00 0.00
9:15 am 09:15 Sunny 23 -5 14 -10 68 68 SW 3 6 30.59 1036 10 16 0.00 0.00
9:35 am 09:35 Sunny 23 -5 14 -10 68 68 SW 3 6 30.59 1036 10 16 0.00 0.00
9:55 am 09:55 Sunny 23 -5 14 -10 68 68 Calm 30.59 1036 10 16 0.00 0.00
10:15 am 10:15 Sunny 25 -4 16 -9 68 68 W 3 6 30.60 1036 10 16 0.00 0.00
10:35 am 10:35 Sunny 25 -4 14 -10 63 63 Calm 30.60 1036 10 16 0.00 0.00
10:55 am 10:55 Sunny 27 -3 14 -10 58 58 Calm 30.61 1036 10 16 0.00 0.00
11:15 am 11:15 Sunny 28 -2 16 -9 59 59 Calm 30.59 1036 10 16 0.00 0.00
11:35 am 11:35 Sunny 27 -3 16 -9 63 63 Calm 30.60 1036 10 16 0.00 0.00
11:55 am 11:55 Sunny 28 -2 16 -9 59 59 Calm 30.58 1036 10 16 0.00 0.00
12:15 pm 12:15 Sunny 28 -2 16 -9 59 59 Calm 30.58 1036 10 16 0.00 0.00
12:35 pm 12:35 Sunny 30 -1 18 -8 59 59 S 5 7 30.58 1035 10 16 0.00 0.00
12:55 pm 12:55 Sunny 32 0 18 -8 55 55 SSE 5 7 30.56 1035 10 16 0.00 0.00
1:15 pm 13:15 Sunny 32 0 18 -8 55 55 SSE 3 6 30.55 1034 10 16 0.00 0.00
1:35 pm 13:35 Sunny 34 1 19 -7 55 55 SE 7 11 30.53 1034 10 16 0.00 0.00
1:55 pm 13:55 Sunny 34 1 19 -7 55 55 SSE 5 7 30.52 1034 10 16 0.00 0.00
2:15 pm 14:15 Sunny 34 1 19 -7 55 55 S 6 9 30.52 1034 10 16 0.00 0.00
2:35 pm 14:35 Sunny 36 2 19 -7 51 51 SSE 8 13 30.50 1033 10 16 0.00 0.00
2:55 pm 14:55 Sunny 34 1 19 -7 55 55 S 8 13 30.50 1033 10 16 0.00 0.00
3:15 pm 15:15 Sunny 36 2 19 -7 51 51 SSE 9 15 30.50 1033 10 16 0.00 0.00
3:35 pm 15:35 Sunny 36 2 19 -7 51 51 S 8 13 30.49 1032 10 16 0.00 0.00
3:55 pm 15:55 Sunny 34 1 19 -7 55 55 S 9 15 30.49 1033 10 16 0.00 0.00
4:15 pm 16:15 Sunny 34 1 18 -8 51 51 SSE 8 13 30.48 1032 10 16 0.00 0.00
4:35 pm 16:35 Sunny 34 1 18 -8 51 51 S 9 15 30.48 1032 10 16 0.00 0.00
4:55 pm 16:55 Sunny 34 1 19 -7 55 55 SSE 8 13 30.47 1032 10 16 0.00 0.00
5:15 pm 17:15 Sunny 32 0 19 -7 59 59 SSE 6 9 30.47 1032 10 16 0.00 0.00
5:35 pm 17:35 Clear 30 -1 19 -7 64 64 SSE 5 7 30.47 1032 10 16 0.00 0.00
5:55 pm 17:55 Clear 30 -1 19 -7 64 64 SSE 6 9 30.47 1032 10 16 0.00 0.00
6:15 pm 18:15 Clear 30 -1 19 -7 64 64 SSE 5 7 30.47 1032 10 16 0.00 0.00
6:35 pm 18:35 Clear 28 -2 19 -7 69 69 SSE 5 7 30.46 1032 10 16 0.00 0.00
6:55 pm 18:55 Clear 28 -2 19 -7 69 69 SSE 3 6 30.46 1032 10 16 0.00 0.00
7:15 pm 19:15 Clear 27 -3 19 -7 74 74 SE 3 6 30.47 1032 10 16 0.00 0.00
7:35 pm 19:35 Clear 28 -2 19 -7 69 69 ESE 5 7 30.45 1031 10 16 0.00 0.00
7:55 pm 19:55 Clear 28 -2 19 -7 69 69 SE 3 6 30.45 1031 10 16 0.00 0.00
8:15 pm 20:15 Clear 28 -2 19 -7 69 69 SE 5 7 30.44 1031 10 16 0.00 0.00
8:35 pm 20:35 Clear 28 -2 19 -7 69 69 SE 7 11 30.43 1031 10 16 0.00 0.00
8:55 pm 20:55 Clear 28 -2 19 -7 69 69 SE 6 9 30.42 1030 10 16 0.00 0.00
9:15 pm 21:15 Partly Cloudy 28 -2 19 -7 69 69 SSE 6 9 30.42 1030 10 16 0.00 0.00
9:35 pm 21:35 Cloudy 28 -2 19 -7 69 69 SE 5 7 30.41 1030 10 16 0.00 0.00
9:55 pm 21:55 Cloudy 30 -1 19 -7 64 64 SE 7 11 30.41 1030 10 16 0.00 0.00
10:15 pm 22:15 Mostly Cloudy 30 -1 19 -7 64 64 SE 8 13 30.39 1029 10 16 0.00 0.00
10:35 pm 22:35 Partly Cloudy 30 -1 19 -7 64 64 SSE 8 13 30.39 1029 10 16 0.00 0.00
10:55 pm 22:55 Clear 30 -1 19 -7 64 64 SE 7 11 30.39 1029 10 16 0.00 0.00
11:15 pm 23:15 Clear 30 -1 19 -7 64 64 SSE 8 13 30.38 1029 10 16 0.00 0.00
11:35 pm 23:35 Clear 30 -1 19 -7 64 64 SSE 9 15 30.37 1028 10 16 0.00 0.00
11:55 pm 23:55 Clear 30 -1 19 -7 64 64 SSE 8 13 30.37 1028 10 16 0.00 0.00

Powered by AerisWeather